This demonstration page uses our WeatherBlox Daily Observations layout. Learn more.

Left ArrowRight Arrow

Hourly Observations for February 16, 2016

Temp ( °F °C ) Dew Point ( °F °C ) Humidity (%) Winds ( mph kmh ) Pressure ( in mb ) Visibility ( mi km ) Precip ( " mm )
12:59 am 00:59 Partly Cloudy 56 13.3 47 8.3 72 72 SSE 12 19 30.01 1016 10 16 0.00 0.00
1:59 am 01:59 Mostly Cloudy 56 13.3 47 8.3 72 72 SSE 12 19 29.97 1015 10 16 0.00 0.00
2:59 am 02:59 Mostly Cloudy 56 13.3 47 8.3 72 72 SSE 10 17 29.92 1013 10 16 0.00 0.00
3:59 am 03:59 Cloudy 57 13.9 47 8.3 69 69 SSE 18 30 29.85 1011 10 16 0.00 0.00
4:59 am 04:59 Mostly Cloudy 60 15.6 49 9.4 67 67 SSE 20 31 29.81 1010 10 16 0.00 0.00
5:59 am 05:59 Cloudy 60 15.6 50 10 70 70 SSE 21 33 29.76 1008 10 16 0.00 0.00
6:59 am 06:59 Cloudy 61 16.1 52 11.1 72 72 SSE 18 30 29.72 1006 10 16 0.00 0.00
7:59 am 07:59 Cloudy 61 16.1 54 12.2 78 78 SSE 21 33 29.68 1005 10 16 0.00 0.00
8:59 am 08:59 Cloudy with Light Rain 61 16.1 56 13.3 84 84 SSE 18 30 29.64 1004 3 5 0.04 1.02
9:13 am 09:13 Cloudy with Light Rain 61 16.1 56 13.3 84 84 SSE 18 30 29.62 1003 2 2 0.06 1.52
9:24 am 09:24 Cloudy with Light Rain 60 15.6 56 13.3 86 86 SSE 20 31 29.62 1003 2 2 0.09 2.29
9:59 am 09:59 Cloudy with Light Rain 61 16.1 58 14.4 90 90 S 16 26 29.60 1002 2 3 0.20 5.08
10:10 am 10:10 Cloudy with Rain 61 16.1 58 14.4 90 90 S 17 28 29.62 1003 2 3 0.04 1.02
10:18 am 10:18 Cloudy with Light Rain 62 16.7 58 14.4 86 86 S 20 31 29.59 1002 2 2 0.07 1.78
10:21 am 10:21 Cloudy with Light Rain 62 16.7 58 14.4 86 86 S 18 30 29.59 1002 2 3 0.08 2.03
10:27 am 10:27 Cloudy with Light Rain 62 16.7 58 14.4 86 86 SSE 17 28 29.59 1002 2 3 0.09 2.29
10:47 am 10:47 Cloudy with Light Rain 60 15.6 56 13.3 86 86 SW 17 28 29.62 1003 2 3 0.20 5.08
10:59 am 10:59 Cloudy with Light Rain 59 15 54 12.2 83 83 SW 14 22 29.61 1003 3 4 0.21 5.33
11:16 am 11:16 Cloudy with Light Rain 58 14.4 54 12.2 87 87 SW 12 19 29.59 1002 3 5 0.02 0.51
11:27 am 11:27 Cloudy with Mist and Fog 58 14.4 54 12.2 87 87 SW 10 17 29.59 1002 5 8 0.02 0.51
11:59 am 11:59 Mostly Cloudy 57 13.9 54 12.2 90 90 SW 13 20 29.61 1003 10 16 0.02 0.51
12:59 pm 12:59 Cloudy 58 14.4 53 11.7 84 84 SW 13 20 29.61 1003 10 16 0.00 0.00
1:59 pm 13:59 Mostly Cloudy 60 15.6 53 11.7 78 78 SW 12 19 29.60 1002 10 16 0.00 0.03
2:25 pm 14:25 Mostly Cloudy 59 15 52 11.1 78 78 SW 12 19 29.62 1003 10 16 0.00 0.00
2:59 pm 14:59 Mostly Cloudy 61 16.1 50 10 67 67 WSW 18 30 29.63 1003 10 16 0.00 0.00
3:59 pm 15:59 Sunny 60 15.6 44 6.7 56 56 W 13 20 29.65 1004 10 16 0.00 0.00
4:59 pm 16:59 Partly Cloudy 55 12.8 42 5.6 62 62 W 9 15 29.67 1005 10 16 0.00 0.00
5:59 pm 17:59 Partly Cloudy 53 11.7 39 3.9 59 59 W 13 20 29.72 1007 10 16 0.00 0.00
6:59 pm 18:59 Partly Cloudy 50 10 38 3.3 63 63 W 5 7 29.78 1008 10 16 0.00 0.00
7:59 pm 19:59 Partly Cloudy 50 10 38 3.3 63 63 WSW 5 7 29.81 1010 10 16 0.00 0.00
8:59 pm 20:59 Partly Cloudy 50 10 37 2.8 61 61 WSW 7 11 29.85 1011 10 16 0.00 0.00
9:59 pm 21:59 Mostly Clear 47 8.3 36 2.2 66 66 W 9 15 29.87 1012 10 16 0.00 0.00
10:59 pm 22:59 Mostly Clear 46 7.8 34 1.1 63 63 WNW 10 17 29.88 1012 10 16 0.00 0.00
11:59 pm 23:59 Partly Cloudy 43 6.1 35 1.7 74 74 NNW 6 9 29.89 1012 10 16 0.00 0.00

Powered by AerisWeather